Time,TemperatureF,DewpointF,PressureIn,WindDirection,WindDirectionDegrees,WindSpeedMPH,WindSpeedGustMPH,Humidity,HourlyPrecipIn,Conditions,Clouds,dailyrainin,SoftwareType,DateUTC
2013-03-15 00:00:00,70.0,0.0,30.08,ENE,57,2.0,5.0,22,-99.99,,,-99.99,,2013-03-15 07:00:00,
2013-03-15 00:08:00,70.0,0.0,30.08,ENE,59,2.0,3.0,24,-99.99,,,-99.99,,2013-03-15 07:08:00,
2013-03-15 00:16:00,70.0,0.0,30.08,ENE,62,5.0,5.0,25,-99.99,,,-99.99,,2013-03-15 07:16:00,
2013-03-15 00:24:00,70.0,0.0,30.07,ENE,68,6.0,6.0,26,-99.99,,,-99.99,,2013-03-15 07:24:00,
2013-03-15 00:32:00,70.0,0.0,30.07,East,82,5.0,6.0,25,-99.99,,,-99.99,,2013-03-15 07:32:00,
2013-03-15 00:40:00,70.0,0.0,30.07,ENE,58,3.0,3.0,24,-99.99,,,-99.99,,2013-03-15 07:40:00,
2013-03-15 00:48:00,70.0,0.0,30.07,NE,45,5.0,5.0,24,-99.99,,,-99.99,,2013-03-15 07:48:00,
2013-03-15 00:56:00,69.0,0.0,30.07,North,361,6.0,6.0,24,-99.99,,,-99.99,,2013-03-15 07:56:00,
2013-03-15 01:04:00,69.0,0.0,30.07,North,3,2.0,2.0,22,-99.99,,,-99.99,,2013-03-15 08:04:00,
2013-03-15 01:12:00,69.0,0.0,30.07,North,361,5.0,5.0,23,-99.99,,,-99.99,,2013-03-15 08:12:00,
2013-03-15 01:20:00,69.0,0.0,30.07,North,361,3.0,3.0,22,-99.99,,,-99.99,,2013-03-15 08:20:00,
2013-03-15 01:28:00,69.0,0.0,30.06,ENE,58,3.0,3.0,24,-99.99,,,-99.99,,2013-03-15 08:28:00,
2013-03-15 01:36:00,69.0,0.0,30.07,North,361,5.0,5.0,23,-99.99,,,-99.99,,2013-03-15 08:36:00,
2013-03-15 01:44:00,69.0,0.0,30.06,North,361,2.0,3.0,23,-99.99,,,-99.99,,2013-03-15 08:44:00,
2013-03-15 01:52:00,68.0,0.0,30.06,North,361,1.0,3.0,23,-99.99,,,-99.99,,2013-03-15 08:52:00,
2013-03-15 02:00:00,68.0,0.0,30.06,NE,35,0.0,2.0,25,-99.99,,,-99.99,,2013-03-15 09:00:00,
2013-03-15 02:08:00,68.0,0.0,30.06,NNE,33,3.0,5.0,23,-99.99,,,-99.99,,2013-03-15 09:08:00,
2013-03-15 02:16:00,68.0,0.0,30.06,North,361,2.0,6.0,24,-99.99,,,-99.99,,2013-03-15 09:16:00,
2013-03-15 02:24:00,68.0,0.0,30.05,NNE,13,3.0,3.0,24,-99.99,,,-99.99,,2013-03-15 09:24:00,
2013-03-15 02:32:00,68.0,0.0,30.05,North,361,2.0,2.0,24,-99.99,,,-99.99,,2013-03-15 09:32:00,
2013-03-15 02:40:00,68.0,0.0,30.05,NNE,13,2.0,3.0,26,-99.99,,,-99.99,,2013-03-15 09:40:00,
2013-03-15 02:48:00,68.0,0.0,30.05,NNE,19,1.0,3.0,24,-99.99,,,-99.99,,2013-03-15 09:48:00,
2013-03-15 02:56:00,68.0,0.0,30.04,NE,53,3.0,5.0,23,-99.99,,,-99.99,,2013-03-15 09:56:00,
2013-03-15 03:04:00,68.0,0.0,30.05,NE,37,3.0,5.0,23,-99.99,,,-99.99,,2013-03-15 10:04:00,
2013-03-15 03:12:00,68.0,0.0,30.04,NE,44,3.0,5.0,24,-99.99,,,-99.99,,2013-03-15 10:12:00,
2013-03-15 03:20:00,68.0,0.0,30.04,NNE,15,1.0,2.0,23,-99.99,,,-99.99,,2013-03-15 10:20:00,
2013-03-15 03:28:00,68.0,0.0,30.04,NE,40,0.0,1.0,24,-99.99,,,-99.99,,2013-03-15 10:28:00,
2013-03-15 03:36:00,68.0,0.0,30.04,NE,53,1.0,3.0,24,-99.99,,,-99.99,,2013-03-15 10:36:00,
2013-03-15 03:44:00,67.0,0.0,30.04,ENE,78,3.0,6.0,25,-99.99,,,-99.99,,2013-03-15 10:44:00,
2013-03-15 03:52:00,67.0,0.0,30.03,ENE,69,2.0,3.0,26,-99.99,,,-99.99,,2013-03-15 10:52:00,
2013-03-15 04:00:00,67.0,0.0,30.03,East,82,2.0,3.0,26,-99.99,,,-99.99,,2013-03-15 11:00:00,
2013-03-15 04:08:00,67.0,0.0,30.03,North,10,1.0,2.0,26,-99.99,,,-99.99,,2013-03-15 11:08:00,
2013-03-15 04:16:00,67.0,0.0,30.03,NNE,26,0.0,2.0,28,-99.99,,,-99.99,,2013-03-15 11:16:00,
2013-03-15 04:24:00,67.0,0.0,30.03,NE,44,3.0,5.0,27,-99.99,,,-99.99,,2013-03-15 11:24:00,
2013-03-15 04:32:00,67.0,0.0,30.03,East,79,5.0,6.0,28,-99.99,,,-99.99,,2013-03-15 11:32:00,
2013-03-15 04:40:00,67.0,0.0,30.02,East,99,3.0,7.0,30,-99.99,,,-99.99,,2013-03-15 11:40:00,
2013-03-15 04:48:00,66.0,0.0,30.02,NE,49,6.0,8.0,27,-99.99,,,-99.99,,2013-03-15 11:48:00,
2013-03-15 04:56:00,65.0,0.0,30.02,North,361,2.0,3.0,25,-99.99,,,-99.99,,2013-03-15 11:56:00,
2013-03-15 05:04:00,64.0,0.0,30.02,North,361,3.0,5.0,25,-99.99,,,-99.99,,2013-03-15 12:04:00,
2013-03-15 05:12:00,64.0,0.0,30.02,NNE,20,2.0,3.0,26,-99.99,,,-99.99,,2013-03-15 12:12:00,
2013-03-15 05:20:00,64.0,0.0,30.02,NE,35,2.0,3.0,27,-99.99,,,-99.99,,2013-03-15 12:20:00,
2013-03-15 05:28:00,65.0,0.0,30.02,North,2,1.0,6.0,26,-99.99,,,-99.99,,2013-03-15 12:28:00,
2013-03-15 05:36:00,66.0,0.0,30.02,ENE,69,6.0,8.0,30,-99.99,,,-99.99,,2013-03-15 12:36:00,
2013-03-15 05:44:00,66.0,0.0,30.02,ENE,57,3.0,6.0,29,-99.99,,,-99.99,,2013-03-15 12:44:00,
2013-03-15 05:52:00,65.0,0.0,30.02,ENE,74,5.0,5.0,28,-99.99,,,-99.99,,2013-03-15 12:52:00,
2013-03-15 06:00:00,65.0,0.0,30.02,East,79,5.0,6.0,28,-99.99,,,-99.99,,2013-03-15 13:00:00,
2013-03-15 06:08:00,65.0,0.0,30.02,ENE,73,3.0,5.0,27,-99.99,,,-99.99,,2013-03-15 13:08:00,
2013-03-15 06:16:00,65.0,0.0,30.02,ENE,76,3.0,5.0,28,-99.99,,,-99.99,,2013-03-15 13:16:00,
2013-03-15 06:24:00,65.0,0.0,30.02,NE,53,5.0,6.0,29,-99.99,,,-99.99,,2013-03-15 13:24:00,
2013-03-15 06:32:00,64.0,0.0,30.02,NNE,20,1.0,3.0,27,-99.99,,,-99.99,,2013-03-15 13:32:00,
2013-03-15 06:40:00,64.0,0.0,30.02,NE,40,3.0,3.0,27,-99.99,,,-99.99,,2013-03-15 13:40:00,
2013-03-15 06:48:00,64.0,0.0,30.02,ENE,70,5.0,5.0,29,-99.99,,,-99.99,,2013-03-15 13:48:00,
2013-03-15 06:56:00,64.0,0.0,30.02,ENE,77,6.0,6.0,28,-99.99,,,-99.99,,2013-03-15 13:56:00,
2013-03-15 07:04:00,64.0,0.0,30.03,NNE,33,5.0,6.0,29,-99.99,,,-99.99,,2013-03-15 14:04:00,
2013-03-15 07:12:00,63.0,0.0,30.03,NE,44,5.0,5.0,29,-99.99,,,-99.99,,2013-03-15 14:12:00,
2013-03-15 07:20:00,63.0,0.0,30.03,NE,50,6.0,6.0,27,-99.99,,,-99.99,,2013-03-15 14:20:00,
2013-03-15 07:28:00,63.0,0.0,30.03,ENE,63,5.0,7.0,27,-99.99,,,-99.99,,2013-03-15 14:28:00,
2013-03-15 07:36:00,63.0,0.0,30.03,NE,36,5.0,6.0,27,-99.99,,,-99.99,,2013-03-15 14:36:00,
2013-03-15 07:44:00,62.0,0.0,30.04,NNE,13,2.0,5.0,27,-99.99,,,-99.99,,2013-03-15 14:44:00,
2013-03-15 07:52:00,64.0,0.0,30.04,ENE,73,3.0,6.0,27,-99.99,,,-99.99,,2013-03-15 14:52:00,
2013-03-15 08:00:00,64.0,0.0,30.04,NE,54,5.0,5.0,28,-99.99,,,-99.99,,2013-03-15 15:00:00,
2013-03-15 08:08:00,65.0,0.0,30.04,NE,35,2.0,2.0,26,-99.99,,,-99.99,,2013-03-15 15:08:00,
2013-03-15 08:16:00,65.0,0.0,30.05,NE,54,3.0,5.0,28,-99.99,,,-99.99,,2013-03-15 15:16:00,
2013-03-15 08:24:00,66.0,0.0,30.04,ENE,78,5.0,7.0,28,-99.99,,,-99.99,,2013-03-15 15:24:00,
2013-03-15 08:32:00,66.0,0.0,30.05,ESE,108,5.0,5.0,29,-99.99,,,-99.99,,2013-03-15 15:32:00,
2013-03-15 08:40:00,66.0,0.0,30.05,ESE,105,3.0,7.0,30,-99.99,,,-99.99,,2013-03-15 15:40:00,
2013-03-15 08:48:00,67.0,0.0,30.05,ESE,103,3.0,6.0,28,-99.99,,,-99.99,,2013-03-15 15:48:00,
2013-03-15 08:56:00,67.0,0.0,30.05,ENE,78,2.0,5.0,27,-99.99,,,-99.99,,2013-03-15 15:56:00,
2013-03-15 09:04:00,67.0,0.0,30.05,ESE,116,3.0,5.0,28,-99.99,,,-99.99,,2013-03-15 16:04:00,
2013-03-15 09:12:00,67.0,0.0,30.05,ESE,113,2.0,3.0,30,-99.99,,,-99.99,,2013-03-15 16:12:00,
2013-03-15 09:20:00,68.0,0.0,30.05,ESE,118,2.0,5.0,30,-99.99,,,-99.99,,2013-03-15 16:20:00,
2013-03-15 09:28:00,68.0,0.0,30.06,ESE,111,0.0,2.0,27,-99.99,,,-99.99,,2013-03-15 16:28:00,
2013-03-15 09:36:00,69.0,0.0,30.06,SE,133,2.0,6.0,28,-99.99,,,-99.99,,2013-03-15 16:36:00,
2013-03-15 09:44:00,70.0,0.0,30.06,NE,56,2.0,2.0,25,-99.99,,,-99.99,,2013-03-15 16:44:00,
2013-03-15 09:52:00,70.0,0.0,30.06,NE,45,2.0,2.0,25,-99.99,,,-99.99,,2013-03-15 16:52:00,
2013-03-15 09:57:00,70.0,0.0,30.06,East,81,2.0,3.0,24,-99.99,,,-99.99,,2013-03-15 16:57:00,
2013-03-15 10:04:00,71.0,0.0,30.06,ENE,78,2.0,5.0,26,-99.99,,,-99.99,,2013-03-15 17:04:00,
2013-03-15 10:13:00,71.0,0.0,30.06,ENE,77,2.0,5.0,23,-99.99,,,-99.99,,2013-03-15 17:13:00,
2013-03-15 10:20:00,71.0,0.0,30.06,East,79,2.0,3.0,24,-99.99,,,-99.99,,2013-03-15 17:20:00,
2013-03-15 10:28:00,73.0,0.0,30.06,ENE,64,5.0,6.0,23,-99.99,,,-99.99,,2013-03-15 17:28:00,
2013-03-15 10:36:00,74.0,0.0,30.06,ENE,70,2.0,5.0,22,-99.99,,,-99.99,,2013-03-15 17:36:00,
2013-03-15 10:44:00,75.0,0.0,30.05,ESE,111,3.0,6.0,23,-99.99,,,-99.99,,2013-03-15 17:44:00,
2013-03-15 10:52:00,76.0,0.0,30.05,ESE,110,3.0,6.0,21,-99.99,,,-99.99,,2013-03-15 17:52:00,
2013-03-15 11:00:00,78.0,0.0,30.05,SE,126,5.0,5.0,20,-99.99,,,-99.99,,2013-03-15 18:00:00,
2013-03-15 11:08:00,78.0,0.0,30.05,East,82,3.0,7.0,20,-99.99,,,-99.99,,2013-03-15 18:08:00,
2013-03-15 11:16:00,79.0,0.0,30.04,ENE,77,5.0,7.0,21,-99.99,,,-99.99,,2013-03-15 18:16:00,
2013-03-15 11:24:00,80.0,0.0,30.04,ENE,75,2.0,5.0,19,-99.99,,,-99.99,,2013-03-15 18:24:00,
2013-03-15 11:32:00,79.0,0.0,30.04,NNE,29,1.0,2.0,20,-99.99,,,-99.99,,2013-03-15 18:32:00,
2013-03-15 11:40:00,80.0,0.0,30.04,ENE,75,2.0,5.0,19,-99.99,,,-99.99,,2013-03-15 18:40:00,
2013-03-15 11:48:00,81.0,0.0,30.03,SE,128,3.0,5.0,19,-99.99,,,-99.99,,2013-03-15 18:48:00,
2013-03-15 11:56:00,82.0,0.0,30.03,SSE,157,2.0,5.0,20,-99.99,,,-99.99,,2013-03-15 18:56:00,
2013-03-15 12:04:00,82.0,0.0,30.03,ESE,118,7.0,7.0,19,-99.99,,,-99.99,,2013-03-15 19:04:00,
2013-03-15 12:12:00,82.0,0.0,30.02,East,83,0.0,5.0,18,-99.99,,,-99.99,,2013-03-15 19:12:00,
2013-03-15 12:20:00,82.0,0.0,30.02,East,88,3.0,8.0,17,-99.99,,,-99.99,,2013-03-15 19:20:00,
2013-03-15 12:28:00,84.0,0.0,30.01,SW,226,3.0,5.0,16,-99.99,,,-99.99,,2013-03-15 19:28:00,
2013-03-15 12:36:00,84.0,0.0,30.01,ESE,104,5.0,7.0,17,-99.99,,,-99.99,,2013-03-15 19:36:00,
2013-03-15 12:44:00,81.0,0.0,30.00,ESE,115,3.0,8.0,18,-99.99,,,-99.99,,2013-03-15 19:44:00,
2013-03-15 12:52:00,82.0,0.0,30.00,SW,221,7.0,9.0,16,-99.99,,,-99.99,,2013-03-15 19:52:00,
2013-03-15 13:00:00,83.0,0.0,30.00,SSW,205,7.0,9.0,17,-99.99,,,-99.99,,2013-03-15 20:00:00,
2013-03-15 13:08:00,83.0,0.0,29.99,SSW,198,3.0,8.0,17,-99.99,,,-99.99,,2013-03-15 20:08:00,
2013-03-15 13:16:00,85.0,0.0,29.99,SE,125,9.0,12.0,15,-99.99,,,-99.99,,2013-03-15 20:16:00,
2013-03-15 13:24:00,86.0,0.0,29.98,SE,136,7.0,10.0,14,-99.99,,,-99.99,,2013-03-15 20:24:00,
2013-03-15 13:32:00,85.0,0.0,29.98,SE,144,3.0,14.0,13,-99.99,,,-99.99,,2013-03-15 20:32:00,
2013-03-15 13:40:00,85.0,0.0,29.97,SSE,161,6.0,14.0,14,-99.99,,,-99.99,,2013-03-15 20:40:00,
2013-03-15 13:52:00,86.0,0.0,29.97,ESE,103,8.0,8.0,14,-99.99,,,-99.99,,2013-03-15 20:52:00,
2013-03-15 14:00:00,88.0,0.0,29.96,South,179,9.0,9.0,13,-99.99,,,-99.99,,2013-03-15 21:00:00,
2013-03-15 14:08:00,85.0,0.0,29.95,SSE,167,6.0,13.0,14,-99.99,,,-99.99,,2013-03-15 21:08:00,
2013-03-15 14:16:00,86.0,0.0,29.94,SSW,196,6.0,14.0,14,-99.99,,,-99.99,,2013-03-15 21:16:00,
2013-03-15 14:24:00,88.0,0.0,29.94,ESE,117,9.0,17.0,14,-99.99,,,-99.99,,2013-03-15 21:24:00,
2013-03-15 14:32:00,88.0,0.0,29.94,SE,124,9.0,14.0,15,-99.99,,,-99.99,,2013-03-15 21:32:00,
2013-03-15 14:40:00,85.0,0.0,29.93,SSW,202,8.0,12.0,18,-99.99,,,-99.99,,2013-03-15 21:40:00,
2013-03-15 14:48:00,87.0,0.0,29.93,SSE,161,10.0,16.0,16,-99.99,,,-99.99,,2013-03-15 21:48:00,
2013-03-15 14:56:00,88.0,0.0,29.92,South,178,7.0,13.0,16,-99.99,,,-99.99,,2013-03-15 21:56:00,
2013-03-15 15:04:00,86.0,0.0,29.92,SSE,167,7.0,12.0,16,-99.99,,,-99.99,,2013-03-15 22:04:00,
2013-03-15 15:12:00,87.0,0.0,29.92,West,263,8.0,17.0,16,-99.99,,,-99.99,,2013-03-15 22:12:00,
2013-03-15 15:20:00,89.0,0.0,29.91,SSE,152,6.0,10.0,15,-99.99,,,-99.99,,2013-03-15 22:20:00,
2013-03-15 15:28:00,89.0,0.0,29.91,ESE,120,6.0,10.0,16,-99.99,,,-99.99,,2013-03-15 22:28:00,
2013-03-15 15:36:00,86.0,0.0,29.91,WSW,239,10.0,16.0,15,-99.99,,,-99.99,,2013-03-15 22:36:00,
2013-03-15 15:52:00,87.0,0.0,29.89,SSW,192,12.0,16.0,14,-99.99,,,-99.99,,2013-03-15 22:52:00,
2013-03-15 16:00:00,90.0,0.0,29.89,SSE,148,6.0,8.0,14,-99.99,,,-99.99,,2013-03-15 23:00:00,
2013-03-15 16:08:00,91.0,0.0,29.88,South,185,18.0,18.0,12,-99.99,,,-99.99,,2013-03-15 23:08:00,
2013-03-15 16:16:00,86.0,0.0,29.88,SSW,198,16.0,22.0,12,-99.99,,,-99.99,,2013-03-15 23:16:00,
2013-03-15 16:24:00,86.0,0.0,29.87,South,183,15.0,22.0,12,-99.99,,,-99.99,,2013-03-15 23:24:00,
2013-03-15 16:32:00,86.0,0.0,29.87,SSW,197,10.0,16.0,13,-99.99,,,-99.99,,2013-03-15 23:32:00,
2013-03-15 16:44:00,85.0,0.0,29.87,SSW,205,16.0,18.0,15,-99.99,,,-99.99,,2013-03-15 23:44:00,
2013-03-15 16:52:00,84.0,0.0,29.87,SSW,212,14.0,18.0,15,-99.99,,,-99.99,,2013-03-15 23:52:00,
2013-03-15 17:00:00,84.0,0.0,29.86,South,184,16.0,17.0,17,-99.99,,,-99.99,,2013-03-16 00:00:00,
2013-03-15 17:08:00,85.0,0.0,29.86,South,184,14.0,16.0,18,-99.99,,,-99.99,,2013-03-16 00:08:00,
2013-03-15 17:16:00,84.0,0.0,29.86,SSW,195,13.0,17.0,17,-99.99,,,-99.99,,2013-03-16 00:16:00,
2013-03-15 17:24:00,85.0,0.0,29.86,SSW,207,13.0,15.0,18,-99.99,,,-99.99,,2013-03-16 00:24:00,
2013-03-15 17:32:00,84.0,0.0,29.86,WSW,257,16.0,21.0,21,-99.99,,,-99.99,,2013-03-16 00:32:00,
2013-03-15 17:40:00,83.0,0.0,29.86,West,260,17.0,21.0,22,-99.99,,,-99.99,,2013-03-16 00:40:00,
2013-03-15 17:48:00,82.0,0.0,29.86,SW,231,16.0,17.0,23,-99.99,,,-99.99,,2013-03-16 00:48:00,
2013-03-15 17:56:00,83.0,0.0,29.85,West,261,5.0,12.0,22,-99.99,,,-99.99,,2013-03-16 00:56:00,
2013-03-15 18:04:00,82.0,0.0,29.86,West,281,13.0,20.0,21,-99.99,,,-99.99,,2013-03-16 01:04:00,
2013-03-15 18:12:00,82.0,0.0,29.85,WSW,255,12.0,16.0,21,-99.99,,,-99.99,,2013-03-16 01:12:00,
2013-03-15 18:20:00,81.0,0.0,29.86,West,278,20.0,23.0,21,-99.99,,,-99.99,,2013-03-16 01:20:00,
2013-03-15 18:28:00,82.0,0.0,29.86,WNW,283,10.0,18.0,21,-99.99,,,-99.99,,2013-03-16 01:28:00,
2013-03-15 18:37:00,81.0,0.0,29.85,West,269,12.0,18.0,20,-99.99,,,-99.99,,2013-03-16 01:37:00,
2013-03-15 18:44:00,81.0,0.0,29.85,West,281,18.0,23.0,21,-99.99,,,-99.99,,2013-03-16 01:44:00,
2013-03-15 18:52:00,80.0,0.0,29.85,WNW,288,13.0,23.0,21,-99.99,,,-99.99,,2013-03-16 01:52:00,
2013-03-15 19:00:00,80.0,0.0,29.86,NW,318,9.0,16.0,23,-99.99,,,-99.99,,2013-03-16 02:00:00,
2013-03-15 19:08:00,80.0,0.0,29.86,NW,312,10.0,17.0,22,-99.99,,,-99.99,,2013-03-16 02:08:00,
2013-03-15 19:16:00,79.0,0.0,29.86,WNW,293,14.0,17.0,20,-99.99,,,-99.99,,2013-03-16 02:16:00,
2013-03-15 19:24:00,79.0,0.0,29.86,WNW,302,12.0,22.0,20,-99.99,,,-99.99,,2013-03-16 02:24:00,
2013-03-15 19:32:00,79.0,0.0,29.86,WNW,290,16.0,22.0,19,-99.99,,,-99.99,,2013-03-16 02:32:00,
2013-03-15 19:40:00,79.0,0.0,29.87,WNW,299,17.0,23.0,20,-99.99,,,-99.99,,2013-03-16 02:40:00,
2013-03-15 19:48:00,78.0,0.0,29.87,WNW,284,13.0,21.0,20,-99.99,,,-99.99,,2013-03-16 02:48:00,
2013-03-15 19:56:00,78.0,0.0,29.87,West,270,10.0,14.0,18,-99.99,,,-99.99,,2013-03-16 02:56:00,
2013-03-15 20:04:00,78.0,0.0,29.87,ESE,110,3.0,5.0,18,-99.99,,,-99.99,,2013-03-16 03:04:00,
2013-03-15 20:12:00,77.0,0.0,29.87,ESE,119,5.0,6.0,19,-99.99,,,-99.99,,2013-03-16 03:12:00,
2013-03-15 20:20:00,78.0,0.0,29.87,NE,38,7.0,9.0,19,-99.99,,,-99.99,,2013-03-16 03:20:00,
2013-03-15 20:28:00,79.0,0.0,29.87,NNW,336,1.0,9.0,18,-99.99,,,-99.99,,2013-03-16 03:28:00,
2013-03-15 20:36:00,77.0,0.0,29.87,NE,41,5.0,8.0,22,-99.99,,,-99.99,,2013-03-16 03:36:00,
2013-03-15 20:44:00,77.0,0.0,29.87,SSE,147,0.0,6.0,23,-99.99,,,-99.99,,2013-03-16 03:44:00,
2013-03-15 20:52:00,76.0,0.0,29.86,ESE,106,2.0,2.0,22,-99.99,,,-99.99,,2013-03-16 03:52:00,
2013-03-15 21:00:00,76.0,0.0,29.87,SE,143,2.0,2.0,23,-99.99,,,-99.99,,2013-03-16 04:00:00,
2013-03-15 21:08:00,75.0,0.0,29.87,ESE,117,5.0,5.0,24,-99.99,,,-99.99,,2013-03-16 04:08:00,
2013-03-15 21:12:00,75.0,0.0,29.87,ESE,113,9.0,12.0,23,-99.99,,,-99.99,,2013-03-16 04:12:00,
2013-03-15 21:16:00,74.0,0.0,29.87,SE,131,6.0,7.0,25,-99.99,,,-99.99,,2013-03-16 04:16:00,
2013-03-15 21:24:00,73.0,0.0,29.87,SE,141,6.0,8.0,24,-99.99,,,-99.99,,2013-03-16 04:24:00,
2013-03-15 21:32:00,72.0,0.0,29.87,ESE,116,6.0,10.0,26,-99.99,,,-99.99,,2013-03-16 04:32:00,
2013-03-15 21:40:00,72.0,0.0,29.88,East,79,2.0,6.0,28,-99.99,,,-99.99,,2013-03-16 04:40:00,
2013-03-15 21:48:00,71.0,0.0,29.89,North,361,2.0,5.0,27,-99.99,,,-99.99,,2013-03-16 04:48:00,
2013-03-15 21:56:00,72.0,0.0,29.89,SSE,168,1.0,1.0,26,-99.99,,,-99.99,,2013-03-16 04:56:00,
2013-03-15 22:04:00,71.0,0.0,29.89,ESE,115,6.0,10.0,28,-99.99,,,-99.99,,2013-03-16 05:04:00,
2013-03-15 22:12:00,71.0,0.0,29.89,SE,133,3.0,9.0,28,-99.99,,,-99.99,,2013-03-16 05:12:00,
2013-03-15 22:20:00,70.0,0.0,29.89,ESE,111,8.0,13.0,30,-99.99,,,-99.99,,2013-03-16 05:20:00,
2013-03-15 22:28:00,70.0,0.0,29.89,SE,135,7.0,10.0,29,-99.99,,,-99.99,,2013-03-16 05:28:00,
2013-03-15 22:36:00,70.0,0.0,29.89,SE,142,5.0,8.0,28,-99.99,,,-99.99,,2013-03-16 05:36:00,
2013-03-15 22:44:00,70.0,0.0,29.90,East,82,5.0,7.0,31,-99.99,,,-99.99,,2013-03-16 05:44:00,
2013-03-15 22:52:00,70.0,0.0,29.89,ENE,78,5.0,5.0,28,-99.99,,,-99.99,,2013-03-16 05:52:00,
2013-03-15 23:00:00,70.0,0.0,29.89,North,8,0.0,2.0,28,-99.99,,,-99.99,,2013-03-16 06:00:00,
2013-03-15 23:08:00,69.0,0.0,29.89,North,361,3.0,5.0,30,-99.99,,,-99.99,,2013-03-16 06:08:00,
2013-03-15 23:16:00,69.0,0.0,29.89,NE,44,2.0,2.0,30,-99.99,,,-99.99,,2013-03-16 06:16:00,
2013-03-15 23:24:00,68.0,0.0,29.89,South,190,2.0,2.0,30,-99.99,,,-99.99,,2013-03-16 06:24:00,
2013-03-15 23:32:00,69.0,0.0,29.90,WSW,242,1.0,2.0,28,-99.99,,,-99.99,,2013-03-16 06:32:00,
2013-03-15 23:40:00,70.0,0.0,29.90,SW,224,5.0,6.0,28,-99.99,,,-99.99,,2013-03-16 06:40:00,
2013-03-15 23:48:00,70.0,0.0,29.89,South,175,3.0,6.0,29,-99.99,,,-99.99,,2013-03-16 06:48:00,
2013-03-15 23:56:00,69.0,0.0,29.89,SE,140,3.0,3.0,29,-99.99,,,-99.99,,2013-03-16 06:56:00,